User: anonymous   Login
Location: Lone Wolf Observatory
(41.0360°N, 89.2260°W)
Time: 00:41:58
(UTC-06:00)
Language:

Cosmos 1378 Rocket - Orbit

View from above orbital plane
View from above orbital plane
View from above satellite
View from above satellite

Ground track
Ground track

The orbit data is extracted from the following two-line orbital elements,

1 13272U 82059B   14327.02286706  .00000655  00000-0  75432-4 0  9189
2 13272 082.5102 299.5524 0017668 336.0983 023.9410 14.84148804752860
Epoch (UTC): 23 November 2014 00:32:55
Eccentricity: 0.0017668
inclination: 82.5102°
perigee height: 604 km
apogee height: 628 km
right ascension of ascending node: 299.5524°
argument of perigee: 336.0983°
revolutions per day: 14.84148804
mean anomaly at epoch: 23.9410°
orbit number at epoch: 75286

The dashed part of the orbit path shows where the satellite is in the earth's shadow,  

DLR